カタログに戻る

STARLINK-35344

運用中通信SSO
NORAD 65656·PAYLOAD·🇺🇸 United States

打ち上げ Sep 19, 2025 から Vandenberg Space Force Base

Loading…

次のパス (今後24時間)

TLE

最新Source: CelesTrak SupGP

元期: Sep 14, 2026, 21:24 UTC

1 65656C 25211E   26257.89215278  .00003174  00000+0  98518-4 0  2579
2 65656  97.2820 298.2576 0001077 116.7135  29.3565 15.33436333    11

AllMySatでSTARLINK-35344をリアルタイム追跡

Download on the App Store